User: anonymous   Login
Location: Caltech
(34.1382°N, 118.1253°W)
Time: 06:41:50
(UTC-07:00)
Language:

Cosmos 676 Rocket - Orbit

View from above orbital plane
View from above orbital plane
View from above satellite
View from above satellite

Ground track
Ground track

The orbit data is extracted from the following two-line orbital elements,

1 07434U 74071B   16148.57643751  .00000070  00000-0  32761-4 0  9995
2 07434  74.0467 202.1478 0021282 211.1080 148.8814 14.36572944181335
Epoch (UTC): 27 May 2016 13:50:04
Eccentricity: 0.0021282
inclination: 74.0467°
perigee height: 754 km
apogee height: 785 km
right ascension of ascending node: 202.1478°
argument of perigee: 211.1080°
revolutions per day: 14.36572944
mean anomaly at epoch: 148.8814°
orbit number at epoch: 18133

The dashed part of the orbit path shows where the satellite is in the earth's shadow,  

DLR